Lexington Weather

Lexington, Massachusetts, USA

45°F
5/12/2021 3:50am 
  • Lexington Conditions: Clear
  • Temperature: 44.6°F / 7.0°CColder 1.3°F than last hour.
  • Dew Point: 32.4°FIncreased 0.9°Fsince last hour.
  • Relative Humidity: 62%Increased 5.0% since last hour.
  • Wind: Wind from W W Calm, 10-min avg: 1 mph, gust: 3 mph
  • Barometer: 29.92 in Steady
  • Visibility: 10 miles
  • Rain Today: 0.00 in
  •   

Regional Weather Roundup
for Boston / Norton, MA

        
000
ASUS41 KBOX 092004
RWRBOX

REGIONAL WEATHER ROUNDUP
NATIONAL WEATHER SERVICE BOSTON/NORTON MA
400 PM EDT SUN MAY 09 2021

NOTE:  "FAIR" INDICATES FEW OR NO CLOUDS BELOW 12,000 FEET WITH NO 
SIGNIFICANT WEATHER AND/OR OBSTRUCTIONS TO VISIBILITY.

MAZALL-092100-
EASTERN MASSACHUSETTS
  
CITY           SKY/WX    TMP DP  RH WIND       PRES   REMARKS
BOSTON         CLOUDY    68  31  25 SW14      29.86F                  
BEVERLY        MOSUNNY   60  41  49 E10       29.85F                  
LAWRENCE       MOSUNNY   65  35  33 W8        29.87F                  
BEDFORD        MOSUNNY   65  30  27 W13G21    29.86S                  
BLUE HILL        N/A     62  27  26 W13G24    29.87S                  
NORWOOD        SUNNY     66  30  26 W13       29.88S                  
MARSHFIELD     MOSUNNY   68  34  28 SW10G22   29.86S                  
PLYMOUTH       MOSUNNY   62  42  47 S13       29.88S                  
TAUNTON        MOSUNNY   63  38  39 S10G18    29.89S                  
NEW BEDFORD    SUNNY     60  39  45 SW16G25   29.90F                  
$$

MAZALL-092100-
CAPE COD AND THE ISLANDS
  
CITY           SKY/WX    TMP DP  RH WIND       PRES   REMARKS
FALMOUTH       MOSUNNY   57  39  51 SW23G32   29.92F                  
HYANNIS        SUNNY     59  40  49 SW21G31   29.90F                  
CHATHAM        SUNNY     56  45  66 SW15G21   29.94S                  
PROVINCETOWN   SUNNY     58  45  62 SW16G22   29.90F                  
NANTUCKET      SUNNY     55  45  68 SW20      29.96S                  
MARTHAS VNYRD  SUNNY     58  43  57 SW13G22   29.94F                  
$$
 
MAZALL-092100-
CENTRAL AND WESTERN MASSACHUSETTS
  
CITY           SKY/WX    TMP DP  RH WIND       PRES   REMARKS
WORCESTER      SUNNY     60  28  29 W12G18    29.90S                  
FITCHBURG      SUNNY     64  30  27 NW15      29.88F                  
ORANGE         MOSUNNY   62  27  26 NW10      29.90S                  
SPRINGFIELD    CLOUDY    63  29  27 W13       29.89F                  
WESTFIELD      MOSUNNY   63  32  31 W12       29.90S                  
NORTH ADAMS    MOSUNNY   60  31  33 VRB5      29.90S                  
PITTSFIELD     MOSUNNY   57  34  41 W13       29.90S                  
$$
 
RIZALL-092100-
RHODE ISLAND
  
CITY           SKY/WX    TMP DP  RH WIND       PRES   REMARKS
PROVIDENCE     CLOUDY    65  37  35 SW14G21   29.90F                  
NEWPORT        SUNNY     56  43  61 SW10G20   29.93S                  
BLOCK ISLAND   SUNNY     53  44  71 SW18G25   29.97S                  
SMITHFIELD       N/A     63  31  30 W10G17    29.90F                  
WESTERLY       SUNNY     56  42  59 S13       29.95S                  
$$
 
CTZALL-092100-
CONNECTICUT
  
CITY           SKY/WX    TMP DP  RH WIND       PRES   REMARKS
BRADLEY INTL   CLOUDY    64  30  27 W12       29.91S                  
HARTFORD       MOSUNNY   65  29  25 W13       29.92S                  
BRIDGEPORT     CLOUDY    60  44  55 SW14      29.98R                  
DANBURY        CLOUDY    60  32  34 SW12G21   29.97R                  
GROTON         SUNNY     59  41  51 SW14      29.94S                  
NEW HAVEN      PTSUNNY   61  40  45 SW12G21   29.96S                  
CHESTER        FAIR      63  32  31 SW14G21   29.95S                  
MERIDEN          N/A     62  34  35 S13       29.94R                  
WILLIMANTIC    SUNNY     63  32  31 W12G18    29.91S                  
OXFORD         PTSUNNY   59  34  39 VRB7      29.96R                  
$$

MEZ002-015-021-024-NHZ003-005-008-011-012-014-VTZ005-008-092100-
NORTHERN NEW ENGLAND
  
CITY           SKY/WX    TMP DP  RH WIND       PRES   REMARKS
PORTLAND ME    PTSUNNY   63  43  48 SE12      29.82F                  
BANGOR ME      PTSUNNY   64  30  27 W10G20    29.77S                  
CONCORD NH     MOSUNNY   61  33  35 NW13      29.87F                  
MANCHESTER NH  PTSUNNY   64  31  28 W9        29.86S                  
NASHUA NH      PTSUNNY   65  33  30 NW15      29.87S                  
PORTSMOUTH NH  PTSUNNY   66  27  23 W9        29.85F                  
JAFFREY NH     PTSUNNY   60  32  34 NW5       29.89S                  
KEENE NH       CLOUDY    61  33  35 NW8       29.88F                  
BURLINGTON VT  PTSUNNY   62  30  29 NW9       29.86F                  
MT. WASHINGTON PTSUNNY   32  30  93 W28G36      N/A  WCI  18          
$$

NYZ052-076-092100-
EASTERN NEW YORK
  
CITY           SKY/WX    TMP DP  RH WIND       PRES   REMARKS
ALBANY         CLOUDY    58  36  43 W7        29.91S                  
NEW YORK CITY  LGT RAIN  56  39  53 W12G28    30.01R                  
$$
 
ANZALL-092100-
MARINE OBSERVATIONS
  
STATION/POSITION TIME  TEMP    WIND        PRES    VSBY  WAVE
                       AIR SEA DIR/SP/G                  HT/PER
                 (UTC) (F)     (DEG/KT/KT) (MB)    (MI)  (FT/S)
BOSTON BUOY      1940   52 49  130/ 16/ 19 1011.3F
BUZZARDS BAY     1900          230/ 24/ 26 1014.5F
NANTUCKET SOUND  1940      53                N/A
MASS BAY-STELLWA 1904   53     160/ 12/ 14 1010.7F  1 7/8  3/11
ISLE OF SHOALS   1900   55     160/ 17/ 18 1010.6F
S OF BLOCK IS    1926      49                N/A           4/ 5
$$

......................KEY.........................
  SKY/WX - SKY CONDITION/PRESENT WEATHER
  TMP    - TEMPERATURE IN FAHRENHEIT
  DWPT   - DEWPOINT IN FAHRENHEIT
  RH     - RELATIVE HUMIDITY IN PERCENT
  WIND   - DIRECTION AND SPEED IN MPH
  PRES   - MEAN SEA LEVEL PRESSURE IN INCHES OF HG
  WCI    - WIND CHILL INDEX
  VSB    - VISIBILITY IN MILES
  HX     - HEAT INDEX
  TC     - TEMPERATURE IN CELSIUS
  VRB    - VARIABLE WIND DIRECTION
  N/A    - NOT AVAILABLE
  
      

Other recent Regional Weather Roundups

Wed May 12, 3:04am

Wed May 12, 2:04am

Wed May 12, 1:04am

Wed May 12, 12:05am

Tue May 11, 11:05pm

Tue May 11, 10:04pm

Tue May 11, 9:05pm

Tue May 11, 8:05pm

Tue May 11, 7:04pm

Tue May 11, 6:04pm

Tue May 11, 5:04pm

Tue May 11, 4:05pm

Tue May 11, 3:04pm

Tue May 11, 2:05pm

Tue May 11, 1:04pm

Tue May 11, 12:05pm

Tue May 11, 11:05am

Tue May 11, 10:04am

Tue May 11, 9:04am

Tue May 11, 8:04am

Tue May 11, 7:05am

Tue May 11, 6:04am

Tue May 11, 5:04am

Tue May 11, 4:04am

Tue May 11, 3:04am

Tue May 11, 2:04am

Tue May 11, 1:04am

Tue May 11, 12:04am

Mon May 10, 11:04pm

Mon May 10, 10:04pm

Mon May 10, 9:05pm

Mon May 10, 8:04pm

Mon May 10, 7:05pm

Mon May 10, 6:04pm

Mon May 10, 5:04pm

Mon May 10, 4:04pm

Mon May 10, 3:04pm

Mon May 10, 2:04pm

Mon May 10, 1:04pm

Mon May 10, 12:04pm

Mon May 10, 11:05am

Mon May 10, 10:04am

Mon May 10, 9:04am

Mon May 10, 8:04am

Mon May 10, 7:04am

Mon May 10, 6:04am

Mon May 10, 5:05am

Mon May 10, 4:04am

Mon May 10, 3:04am

Mon May 10, 2:04am

Mon May 10, 1:04am

Mon May 10, 12:04am

Sun May 9, 11:04pm

Sun May 9, 10:04pm

Sun May 9, 9:04pm

Sun May 9, 8:04pm

Sun May 9, 7:05pm

Sun May 9, 6:04pm

Sun May 9, 5:04pm

Sun May 9, 3:04pm

Sun May 9, 2:04pm

Sun May 9, 1:05pm

Sun May 9, 12:04pm

Sun May 9, 11:05am

Sun May 9, 10:04am

Sun May 9, 9:04am

Sun May 9, 8:04am

Sun May 9, 7:04am

Sun May 9, 6:04am

Sun May 9, 5:04am

Sun May 9, 4:04am

Sun May 9, 3:04am

Sun May 9, 2:04am

Sun May 9, 1:05am

Sun May 9, 12:04am

Sat May 8, 11:05pm

Sat May 8, 10:04pm

Sat May 8, 9:05pm

Sat May 8, 8:04pm

Sat May 8, 7:04pm

Sat May 8, 6:04pm

Sat May 8, 5:05pm

Sat May 8, 4:04pm

Sat May 8, 3:05pm

Sat May 8, 2:05pm

Sat May 8, 1:05pm

Sat May 8, 12:04pm

Sat May 8, 11:05am

Sat May 8, 10:04am

Sat May 8, 9:04am

Sat May 8, 8:04am

Sat May 8, 7:04am

Sat May 8, 6:04am

Sat May 8, 5:04am

Sat May 8, 4:04am

Sat May 8, 3:04am

Sat May 8, 2:04am

Sat May 8, 1:05am

Sat May 8, 12:04am

Fri May 7, 11:04pm

Fri May 7, 10:05pm

Fri May 7, 9:04pm

Fri May 7, 8:04pm

Fri May 7, 7:05pm

Fri May 7, 6:04pm

Fri May 7, 5:05pm

Fri May 7, 4:04pm

Fri May 7, 3:04pm

Fri May 7, 2:05pm

Fri May 7, 1:04pm

Fri May 7, 12:04pm

Fri May 7, 11:05am

Fri May 7, 10:04am

Fri May 7, 9:04am

Fri May 7, 8:05am

Fri May 7, 7:04am

Fri May 7, 6:04am

Fri May 7, 5:04am

Fri May 7, 4:04am

Fri May 7, 3:04am

Fri May 7, 2:05am

Fri May 7, 1:04am

Fri May 7, 12:05am

Thu May 6, 11:04pm

Thu May 6, 10:04pm

Thu May 6, 9:05pm

Thu May 6, 8:04pm

Thu May 6, 7:04pm

Thu May 6, 6:04pm

Thu May 6, 5:05pm

Thu May 6, 4:04pm

Thu May 6, 3:04pm

Thu May 6, 2:05pm

Thu May 6, 1:04pm

Thu May 6, 12:04pm

Thu May 6, 11:04am

Thu May 6, 10:04am

Thu May 6, 9:04am

Thu May 6, 8:04am

Thu May 6, 7:04am

Thu May 6, 6:04am

Thu May 6, 5:04am

Thu May 6, 4:04am

Thu May 6, 3:04am

Thu May 6, 2:05am

Thu May 6, 1:04am

Thu May 6, 12:05am

Wed May 5, 11:04pm

Wed May 5, 10:04pm

Wed May 5, 9:05pm

Wed May 5, 8:04pm

Wed May 5, 7:05pm

Wed May 5, 6:04pm

Wed May 5, 5:04pm

Wed May 5, 4:04pm

Wed May 5, 3:04pm

Wed May 5, 2:05pm

Wed May 5, 1:05pm

Wed May 5, 12:04pm

Wed May 5, 11:05am

Wed May 5, 10:04am

Wed May 5, 9:04am

Wed May 5, 8:04am

Wed May 5, 7:04am

Wed May 5, 6:05am

Wed May 5, 5:04am

Wed May 5, 4:04am

Meta data:

ID: 3377a674-c687-4888-a991-1755cd34e176
Link: https://api.weather.gov/products/3377a674-c687-4888-a991-1755cd34e176